This is the latest recevied weather packets stored in our database for station/object KB3GVC-13. If no packets are shown the sender has not sent any weather packets the latest 10 day(s).
| Time | Temp. | Humidity | Pressure | Rain* | Wind** | Luminosity | Snow |
|---|---|---|---|---|---|---|---|
| 1777747562 | 16.11° C | 44% | 1013.2 hPa | 0 mm | - | - | - |
| 1777747257 | 16.11° C | 42% | 1013.4 hPa | 0 mm | - | - | - |
| 1777746954 | 15.56° C | 44% | 1013.4 hPa | 0 mm | - | - | - |
| 1777746650 | 15.56° C | 46% | 1013.7 hPa | 0 mm | - | - | - |
| 1777746346 | 15.56° C | 43% | 1013.6 hPa | 0 mm | - | - | - |
| 1777746042 | 16.11° C | 42% | 1013.8 hPa | 0 mm | - | - | - |
| 1777745740 | 15.56° C | 42% | 1013.8 hPa | 0 mm | - | - | - |
| 1777745438 | 16.11° C | 42% | 1013.8 hPa | 0 mm | - | - | - |
| 1777745135 | 15.56° C | 41% | 1013.8 hPa | 0 mm | - | - | - |
| 1777744832 | 15.56° C | 44% | 1013.7 hPa | 0 mm | - | - | - |
| 1777744526 | 15° C | 43% | 1013.8 hPa | 0 mm | - | - | - |
| 1777744222 | 15° C | 44% | 1013.7 hPa | 0 mm | - | - | - |
| 1777743919 | 15.56° C | 43% | 1013.8 hPa | 0 mm | - | - | - |
| 1777743615 | 15.56° C | 43% | 1013.8 hPa | 0 mm | - | - | - |
| 1777743313 | 15.56° C | 42% | 1013.8 hPa | 0 mm | - | - | - |
| 1777743011 | 15° C | 49% | 1013.9 hPa | 0 mm | - | - | - |
| 1777742708 | 14.44° C | 44% | 1013.9 hPa | 0 mm | - | - | - |
| 1777742404 | 13.89° C | 46% | 1014.1 hPa | 0 mm | - | - | - |
| 1777742100 | 14.44° C | 47% | 1014.1 hPa | 0 mm | - | - | - |
| 1777741798 | 15° C | 45% | 1014 hPa | 0 mm | - | - | - |
| 1777741494 | 15° C | 41% | 1014 hPa | 0 mm | - | - | - |
| 1777741190 | 15.56° C | 45% | 1014.3 hPa | 0 mm | - | - | - |
| 1777740887 | 15° C | 44% | 1014.1 hPa | 0 mm | - | - | - |
| 1777740584 | 15.56° C | 43% | 1014.1 hPa | 0 mm | - | - | - |
| 1777740280 | 15.56° C | 43% | 1014 hPa | 0 mm | - | - | - |
* Rain latest hour (hover to see other rain measurements)
** Current wind speed in m/s (hover to see current wind gust speed)